Regional Weather Roundup
Issued by NWS Mobile, AL

Home | Current Version | Previous Version | Text Only | Print | Product List | Glossary On
Versions: 1 2 3 4 5 6 7 8 9 10 11 12 13 14 15 16 17 18 19 20 21 22 23 24 25 26 27 28 29 30 31 32 33 34 35 36 37 38 39 40 41 42 43 44 45 46 47 48 49 50
000
ASUS44 KMOB 190710
RWRMOB
REGIONAL WEATHER ROUNDUP
NATIONAL WEATHER SERVICE MOBILE AL
200 AM CDT FRI SEP 19 2014

NOTE: "FAIR" INDICATES FEW OR NO CLOUDS BELOW 12,000 FEET WITH NO
      SIGNIFICANT WEATHER AND/OR OBSTRUCTIONS TO VISIBILITY.

  * THESE STATIONS ARE PART OF THE UNIVERSITY OF SOUTH ALABAMA
    MESONET AND ARE NOT UNDER NWS OR FAA QUALITY CONTROL.

ALZ061>064-190800-
COASTAL ALABAMA

CITY           SKY/WX    TMP DP  RH WIND       PRES   REMARKS
MOBILE REG APT CLOUDY    71  69  93 N6        29.95F
BROOKLEY FIELD CLOUDY    74  70  87 N6        29.95F
USA CAMPUS*      N/A     70  70 100 CALM      29.94F
DOG RIVER*     NOT AVBL


CITY           SKY/WX    TMP DP  RH WIND       PRES   REMARKS
MOUNT VERNON*    N/A     70  66  88 CALM      29.95F
SARALAND*      NOT AVBL
BAY MINETTE*   NOT AVBL
LOXLEY*          N/A    N/A N/A N/A N7        29.94F
ROBERTSDALE*     N/A    N/A N/A N/A CALM      29.94F
FAIRHOPE*        N/A     72  68  88 N3        29.93S
ELBERTA*       NOT AVBL
FOLEY*         NOT AVBL
GRAND BAY*       N/A     72  70  94 N3        29.92F
DAUPHIN ISLND* NOT AVBL
BON SCOUR NWR* NOT AVBL
GULF SHORES    CLOUDY    73  71  91 N7        29.92S

$$

ALZ051>060-190800-
INTERIOR SOUTHWEST AND SOUTH CENTRAL ALABAMA

CITY           SKY/WX    TMP DP  RH WIND       PRES   REMARKS
GREENVILLE     CLOUDY    70  65  84 CALM      29.97S
EVERGREEN      CLOUDY    72  69  90 CALM      29.96S
CASTLEBERRY*   NOT AVBL
ATMORE*          N/A     72  70  94 N3        29.96F
DIXIE*         NOT AVBL
ANDALUSIA/OPP  CLOUDY    73  64  73 CALM      29.95F
ANDALUSIA*     NOT AVBL
FLORALA APT    CLOUDY    71  66  84 CALM      29.97S
FLORALA*         N/A     70  66  88 CALM      29.93S

$$

FLZ001>006-190800-
WESTERN FLORIDA PANHANDLE

CITY           SKY/WX    TMP DP  RH WIND       PRES   REMARKS
PENSACOLA      CLOUDY    74  72  93 N3        29.92F
NAS PENSACOLA  CLOUDY    77  74  90 N5        29.91F
MILTON         CLOUDY    74  70  87 CALM      29.93F
WHTNG S FIELD  CLOUDY    76  72  87 N3        29.93F


CITY           SKY/WX    TMP DP  RH WIND       PRES   REMARKS
WALNUT HILL*   NOT AVBL
JAY*           NOT AVBL
DUKE FIELD     CLOUDY    74  74 100 N2        29.93F
CRESTVIEW      CLOUDY    72  70  93 CALM      29.95F
VALPARAISO     MOCLDY    77  74  89 N1        29.93S
DESTIN         CLOUDY    81  75  82 N3        29.92F

$$

MSZ076-079-190800-
INTERIOR SOUTHEAST MISSISSIPPI

CITY           SKY/WX    TMP DP  RH WIND       PRES   REMARKS
LEAKESVILLE*     N/A     68  66  94 NE2       29.96F
AGRICOLA*      NOT AVBL

$$

MARINE OBSERVATIONS

STATION/POSITION TIME  TEMP    WIND        PRES    WAVE
                       AIR SEA DIR/SP/G            HT/PER
                 (UTC) (F)     (DEG/KT/KT) (MB)    (FT/S)
PASCAGOULA       0700   75      30/  5/  7 1013.6R
PETIT BOIS ISLND 0700   76      40/  5/  8 1013.5S
GRAND BAY        0600   75      10/  5     1015.0S
KATRINA CUT      0600   81      40/ 10     1013.5F
CEDAR POINT      0500   80      40/  6     1013.5S
E DAUPHIN ISLAND 0556   81      40/  7/  8 1013.2F
MIDDLE BAY LIGHT 0600   79      10/ 15     1013.2F
USCG MOBILE BAY  0700      86              1012.8F
STATE DOCKS      0700   74 87              1013.7S
MEAHER PARK      0600   74     360/  5     1013.9F
WEEKS BAY        0600   74                   N/A
12 S ORANGE BCH  0700   83 85  110/  8/ 10 1012.7F   1
PENSACOLA BAY    0700   79 87   30/  2/  4 1013.5F
64 S DAUPHIN ISL 0638   75 85  150/ 19/ 23 1013.0F   1/ 3
67 S FORT MORGAN 0600   76     VRB 14      1012.5F

$$

SELECTED LOCATIONS ACROSS THE REGION

CITY           SKY/WX    TMP DP  RH WIND       PRES   REMARKS
NEW ORLEANS    LGT RAIN  75  68  78 E15       29.92S
GULFPORT       LGT RAIN  73  69  87 N3        29.93F
PASCAGOULA AP  CLOUDY    71  68  90 CALM      29.93F
PASCAGOULA*      N/A     73  68  83 VRB3      29.94S
HATTIESBURG    CLOUDY    72  69  90 CALM      29.95F
LAUREL         CLOUDY   N/A N/A N/A W3        29.95F
MERIDIAN       CLOUDY    70  68  93 N5        29.95S
JACKSON        MOCLDY    69  67  93 CALM      29.96R
MONTGOMERY     CLOUDY    72  67  84 CALM      29.97F
TROY           CLOUDY    67  65  93 CALM      29.98S
KINSTON*       NOT AVBL
GENEVA*          N/A     68  63  83 E3        29.96F
ASHFORD*       NOT AVBL
DOTHAN         MOCLDY    70  65  84 CALM      29.99F
PANAMA CITY    CLOUDY    76  73  91 N3        29.92F

$$



USA.gov is the U.S. government's official web portal to all federal, state and local government web resources and services.